Location: Kailua
(21.4020°N, 157.7390°W)
Time: 07:02:42
(UTC-10:00)

Daily predictions for brighter satellites

Satellite Brightness Start Highest point End
(mag) Time Altitude Azimuth Time Altitude Azimuth Time Altitude Azimuth
Meteor 1-28 Rocket 3.1 18:31:16 10° NNE 18:34:57 66° E 18:38:39 10° S
Sich 1 4.1 18:38:15 10° SE 18:41:51 25° E 18:45:27 10° NE
Cosmos 1633 Rocket 4.1 18:43:06 10° SE 18:46:40 24° E 18:50:13 10° NE
Meteor 1-11 4.3 18:41:33 10° S 18:47:11 85° W 18:52:54 10° N
GPS 2-14 Rocket1 2.8 18:43:28 10° W 18:47:35 80° S 18:51:36 10° E
Tiangong 1 2.6 18:47:26 10° S 18:49:42 20° SE 18:51:32 12° E
SJ-6B 4.1 18:47:28 10° ESE 18:50:31 21° ENE 18:53:38 10° NNE
Cosmos 1844 Rocket 2.9 18:47:16 10° NNW 18:52:54 80° WSW 18:58:30 10° SSE
Helios 1B rocket 4.0 18:57:46 14° E 18:58:48 16° E 19:01:18 10° SE
Orbus 7S 4.2 18:53:12 10° WNW 18:59:09 48° N 19:01:06 18° ENE
ALOS 3.7 18:56:46 10° ESE 18:59:39 17° ENE 19:02:34 10° NNE
Cosmos 372 Rocket 4.4 18:55:03 10° N 18:59:45 37° ENE 19:04:27 10° SE
Cosmos 1703 3.1 18:57:03 10° S 19:00:56 79° E 19:04:50 10° N
Cosmos 1461 3.7 18:58:09 10° SW 19:02:22 51° WNW 19:06:25 10° NNE
FREGAT/IRIS 3.7 19:00:25 10° SE 19:02:58 24° ENE 19:05:31 10° NNE
Resurs 01 Rocket 3.4 19:02:22 10° ESE 19:10:13 - NNE 19:03:22 13° E
Cosmos 2058 4.3 19:03:44 10° SSW 19:07:36 39° W 19:11:28 10° NNW
Fermi 4.0 19:06:37 10° WNW 19:10:38 55° N 19:12:55 24° ENE
CCE 1 Rocket 3.9 19:06:53 10° WSW 19:11:01 76° SSE 19:15:12 20° ENE
Cosmos 1626 2.0 19:09:08 10° S 19:12:51 85° E 19:16:36 10° N
GPS 2-15 Rocket1 3.3 19:09:09 10° W 19:13:55 70° S 19:17:14 20° ESE
METEOR-M 4.1 19:09:28 10° SSE 19:14:42 58° ENE 19:19:56 10° N
Coronas F rocket 2.1 19:14:48 10° SSE 19:16:22 29° SE 19:16:22 29° SE
Centaur Rocket 2.8 19:13:38 10° WSW 19:17:09 41° S 19:17:56 28° SE
OAO 3 Rocket 3.2 19:12:28 10° NW 19:17:19 64° NNE 19:20:19 22° ESE
Meteor 2-10 3.9 19:12:40 10° N 19:17:50 84° E 19:23:11 10° S
Cosmos 1666 Rocket 3.4 19:14:54 10° S 19:19:12 88° E 19:23:32 10° N
Cosmos 1707 Rocket 3.8 19:15:28 10° NNE 19:19:34 41° E 19:23:40 10° SSE
Star 48 S/N 10017-12 3.7 19:18:21 10° WNW 19:20:42 74° N 19:22:03 31° E
Palapa 6 Rocket 4.1 19:15:50 10° WSW 19:22:04 77° SSE 19:26:41 25° E
Cosmos 1603 4.0 19:17:07 10° S 19:22:26 45° ESE 19:25:40 22° NE
XTE 3.0 19:23:16 10° WSW 19:26:14 61° SSE 19:26:40 52° ESE
USA 215 4.1 19:24:08 24° ENE 19:26:18 29° NE 19:31:44 10° NNW
Abrixas rocket 4.3 19:23:29 10° WNW 19:26:24 28° SW 19:29:20 10° SSE
Cosmos 1455 3.8 19:28:23 20° SE 19:28:23 20° SE 19:29:55 10° SSE
Cosmos 1184 Rocket 2.9 19:25:31 10° S 19:28:53 76° W 19:31:19 17° N
SEDSat Delta rocket 3.2 19:24:51 10° WNW 19:30:21 74° NNE 19:32:31 33° E
Cosmos 1356 Rocket 4.1 19:26:53 10° SSW 19:30:48 52° W 19:34:41 10° N
Cosmos 1933 Rocket 4.1 19:26:48 10° SSE 19:30:44 35° E 19:30:44 35° E
BREEZE-M DEB (TANK) 4.3 19:27:38 10° NW 19:32:26 71° SW 19:46:54 10° SSE
Spot 2 Rocket 3.9 19:28:18 10° SE 19:32:56 37° ENE 19:37:33 10° N
Cosmos 1125 Rocket 4.3 19:30:25 10° NNW 19:35:27 52° WSW 19:40:28 10° S
Intelsat 5-1 Rocket 1.9 19:34:01 10° WNW 19:36:57 69° N 19:38:24 42° E
NOAA 12 4.3 19:32:12 10° S 19:37:23 72° WSW 19:42:37 10° NNW
Atlas Centaur 2 2.0 19:33:04 10° WNW 19:37:45 53° SSW 19:39:42 27° SE
SL-19 R/B 4.4 19:35:48 10° SSE 19:41:56 63° ENE 19:47:39 10° N
Cosmos 2278 Rocket 2.5 19:36:58 10° NNW 19:42:37 69° WSW 19:48:13 10° S
Transit 2A Rocket 4.4 19:41:04 10° NNW 19:45:13 60° ENE 19:45:13 60° ENE
Centaur AC-119 3.0 19:44:10 10° WNW 19:46:40 42° N 19:46:42 42° N
Cosmos 923 Rocket 3.9 19:45:35 10° SSW 19:50:48 86° WNW 19:53:22 31° NNE
Cosmos 1470 Rocket 3.4 19:47:31 10° S 19:51:55 79° E 19:52:17 71° NE
Orbus 7S 4.1 19:53:13 10° SW 19:54:54 35° SSW 19:54:54 35° SSW
Hubble Space Telescope 1.5 19:52:09 10° W 19:56:08 46° SSW 19:56:39 44° S
GPS 2-17 Rocket1 2.9 19:52:22 10° WSW 19:56:48 71° S 19:56:50 71° S
Cosmos 1680 Rocket 3.3 19:53:40 10° S 19:58:52 83° ESE 19:59:49 60° NNE
Iridium 4 Rocket 3.7 19:54:27 10° S 19:59:19 62° W 20:02:45 17° NNW
Cosmos 2026 Rocket 3.8 20:03:09 10° S 20:09:26 78° E 20:10:46 57° NNE
NOSS 3-1 (A) 4.1 20:15:39 10° S 20:19:04 37° S 20:19:04 37° S
Cosmos 2297 3.9 20:17:29 10° NNW 20:23:09 69° WSW 20:28:50 10° S
ALOS 4.1 20:32:45 10° SSW 20:36:47 29° W 20:40:50 10° NW
Resurs 01 Rocket 3.6 20:37:37 10° SSW 20:40:57 26° WSW 20:40:57 26° WSW
Cosmos 1943 4.3 20:37:44 10° SSW 20:41:05 37° SW 20:41:05 37° SW
Milstar 3 3.5 21:01:19 10° WNW 21:07:05 57° WSW 21:07:05 57° WSW
USA 215 4.5 21:11:32 35° WNW 21:11:32 35° WNW 21:15:20 10° NW
